Terminal Aerodrome Forecast
Issued by NWS

Current Version | Previous Version | Graphics & Text | Print | Product List | Glossary On
Versions: 1 2 3 4 5 6 7 8 9 10 11 12 13
669
FTUS41 KPBZ 182320
TAFHLG
TAF
KHLG 182320Z 1900/1924 19003KT P6SM SKC
     FM191600 23008G16KT P6SM SKC=

USA.gov is the U.S. government's official web portal to all federal, state and local government web resources and services.